TimeMDT,TemperatureF,Dew PointF,Humidity,Sea Level PressureIn,VisibilityMPH,Wind Direction,Wind SpeedMPH,Gust SpeedMPH,PrecipitationIn,Events,Conditions,WindDirDegrees,DateUTC
12:53 AM,62.1,37.0,39,29.77,10.0,West,8.1,-,N/A,,Clear,280,2013-05-26 06:53:00
1:53 AM,57.9,37.0,46,29.78,10.0,West,6.9,-,N/A,,Clear,270,2013-05-26 07:53:00
2:53 AM,57.0,37.9,49,29.78,10.0,NNW,3.5,-,N/A,,Clear,330,2013-05-26 08:53:00
3:53 AM,53.1,37.0,55,29.81,10.0,Calm,Calm,-,N/A,,Clear,0,2013-05-26 09:53:00
4:53 AM,51.1,37.0,59,29.82,10.0,NW,5.8,-,N/A,,Clear,310,2013-05-26 10:53:00
5:53 AM,48.0,37.9,68,29.84,10.0,Calm,Calm,-,N/A,,Clear,0,2013-05-26 11:53:00
6:53 AM,55.0,39.0,55,29.87,10.0,WNW,9.2,-,N/A,,Clear,290,2013-05-26 12:53:00
7:53 AM,57.9,39.9,51,29.87,10.0,Variable,3.5,-,N/A,,Clear,0,2013-05-26 13:53:00
8:53 AM,62.1,39.9,44,29.87,10.0,West,4.6,-,N/A,,Clear,260,2013-05-26 14:53:00
9:53 AM,64.9,37.9,37,29.86,10.0,Calm,Calm,-,N/A,,Clear,0,2013-05-26 15:53:00
10:53 AM,68.0,39.0,35,29.83,10.0,ESE,4.6,-,N/A,,Clear,120,2013-05-26 16:53:00
11:53 AM,71.1,37.9,30,29.81,10.0,Calm,Calm,-,N/A,,Clear,0,2013-05-26 17:53:00
12:53 PM,73.9,37.9,27,29.78,10.0,ENE,4.6,-,N/A,,Clear,70,2013-05-26 18:53:00
1:53 PM,78.1,36.0,22,29.74,10.0,Calm,Calm,-,N/A,,Clear,0,2013-05-26 19:53:00
2:53 PM,78.1,35.1,21,29.72,10.0,Variable,6.9,-,N/A,,Clear,0,2013-05-26 20:53:00
3:53 PM,78.1,33.1,19,29.71,10.0,Variable,4.6,-,N/A,,Clear,0,2013-05-26 21:53:00
4:53 PM,73.0,37.9,28,29.72,10.0,NW,23.0,31.1,N/A,,Clear,320,2013-05-26 22:53:00
5:41 PM,73.4,37.4,27,29.77,10.0,NW,21.9,-,N/A,Thunderstorm,Mostly Cloudy,310,2013-05-26 23:41:00
5:53 PM,69.1,42.1,38,29.70,10.0,NW,25.3,31.1,0.00,Rain,Light Rain,320,2013-05-26 23:53:00
6:16 PM,69.8,41.0,35,29.76,10.0,NW,24.2,35.7,0.00,Rain-Thunderstorm,Light Rain,320,2013-05-27 00:16:00
6:32 PM,68.0,39.2,35,29.77,10.0,NW,25.3,33.4,0.00,,Mostly Cloudy,310,2013-05-27 00:32:00
6:53 PM,69.1,43.0,39,29.69,10.0,North,6.9,-,0.00,Rain,Light Rain,350,2013-05-27 00:53:00
7:53 PM,72.0,39.0,30,29.68,10.0,Calm,Calm,-,0.00,,Clear,0,2013-05-27 01:53:00
8:53 PM,66.0,44.1,45,29.70,10.0,West,8.1,-,N/A,,Clear,270,2013-05-27 02:53:00
9:53 PM,63.0,43.0,48,29.71,10.0,WNW,6.9,-,N/A,,Clear,290,2013-05-27 03:53:00
10:53 PM,60.1,41.0,49,29.73,10.0,Calm,Calm,-,N/A,,Clear,0,2013-05-27 04:53:00
11:53 PM,55.9,44.1,64,29.72,10.0,Calm,Calm,-,N/A,,Clear,0,2013-05-27 05:53:00